DateTimeUTC,F1_A11,F1_S11,BsB_S11,BsG_S11,BsR_S11,BbsB_S11,BbsG_S11,BbsR_S11,BaB_A11,BaG_A11,BaR_A11,Tu_S11,T_S11,Uu_S11,U_S11,P_S11,T1_A11
2021-03-17T23:00:00Z,00040200,20000000,,,,,,,-001.19,-001.31,-000.85,17.4,24.6,06.9,04.4,0650.1,31.0
2021-03-17T23:01:00Z,00040200,20000000,,,,,,,-000.15,0000.46,0000.09,17.4,24.6,06.8,04.4,0650.1,31.0
2021-03-17T23:02:00Z,00040200,20000000,,,,,,,0000.80,-000.19,-000.09,17.4,24.6,06.7,04.3,0650.1,31.0
2021-03-17T23:03:00Z,00040200,60000000,,,,,,,-000.31,0000.20,0000.13,17.4,24.6,06.7,04.3,0650.1,30.9
2021-03-17T23:04:00Z,00040200,40000000,0000.18,0000.26,0000.17,-000.31,-000.03,0000.16,0000.11,-000.58,-000.25,17.5,24.4,06.4,04.2,0651.0,30.9
2021-03-17T23:05:00Z,00040200,00000000,0000.51,0000.13,0000.21,0000.09,0000.03,0000.17,-001.33,-000.47,-000.56,17.6,24.4,06.1,04.0,0651.1,30.9
2021-03-17T23:06:00Z,00040200,00000000,0000.03,0000.13,0000.13,-000.03,0000.16,0000.25,-000.11,-000.52,-000.17,17.6,24.4,05.6,03.7,0651.0,31.0
2021-03-17T23:07:00Z,00040200,00000000,-000.07,0000.07,0000.60,0000.02,-000.00,0000.26,0000.45,0000.48,0000.37,17.6,24.4,05.5,03.7,0651.1,30.9
2021-03-17T23:08:00Z,00040200,00000000,0000.35,0000.05,0000.16,-000.13,0000.16,0000.14,-000.30,-000.09,-000.04,17.6,24.4,05.7,03.8,0651.0,30.9
2021-03-17T23:09:00Z,00040200,00000000,0000.56,0000.12,0000.00,-000.03,0000.18,0000.20,0000.15,0000.68,0000.27,17.6,24.4,05.7,03.7,0651.0,30.9
2021-03-17T23:10:00Z,00040200,00000000,0001.01,0000.02,0000.09,-000.14,0000.12,0000.08,0000.73,0000.18,0000.23,17.6,24.4,05.5,03.7,0651.1,30.9
2021-03-17T23:11:00Z,00040200,00000000,0000.87,-000.11,0000.23,0000.04,-000.00,0000.24,0000.43,0000.30,0000.56,17.6,24.4,05.8,03.8,0651.0,31.0
2021-03-17T23:12:00Z,00040200,00000000,0000.46,0000.18,0000.05,-000.12,-000.06,0000.13,-000.15,0000.01,-000.04,17.6,24.3,05.7,03.8,0651.0,31.0
2021-03-17T23:13:00Z,00040200,00000000,0000.31,0000.25,0000.10,0000.13,0000.10,0000.03,-000.47,-000.21,-000.05,17.6,24.4,05.6,03.7,0651.0,31.0
2021-03-17T23:14:00Z,00040200,00000000,0000.69,0000.05,0000.20,0000.05,-000.04,-000.03,-000.01,0000.02,-000.25,17.6,24.4,05.5,03.6,0651.0,31.0
2021-03-17T23:15:00Z,00040200,00000000,0000.63,0000.32,0000.05,-000.23,0000.10,-000.05,0000.28,0000.06,0000.27,17.6,24.4,05.4,03.6,0651.1,31.0
2021-03-17T23:16:00Z,00040200,00000000,-000.20,0000.15,0000.20,-000.35,-000.08,-000.00,0001.55,0001.21,0001.06,17.6,24.4,05.6,03.7,0651.1,31.0
2021-03-17T23:17:00Z,00040200,00000000,0000.51,-000.09,0000.34,-000.07,0000.04,0000.21,0000.36,0000.66,0000.53,17.6,24.4,05.9,03.9,0651.1,31.0
2021-03-17T23:18:00Z,00040200,00000000,0000.42,0000.18,0000.36,0000.13,-000.07,0000.25,-000.27,-000.38,-000.02,17.6,24.4,05.9,03.9,0651.1,31.0
2021-03-17T23:19:00Z,00040200,00000000,0000.53,0000.30,0000.52,0000.39,-000.05,-000.00,-000.58,-000.44,-000.23,17.6,24.4,05.5,03.6,0651.1,31.0
2021-03-17T23:20:00Z,00040200,00000000,0000.15,0000.01,0000.50,0000.18,0000.11,0000.16,0000.76,0000.53,0000.15,17.6,24.4,05.4,03.6,0651.1,30.9
2021-03-17T23:21:00Z,00040200,00000000,0000.55,0000.17,0000.19,0000.22,0000.07,0000.40,0000.21,0000.28,0000.39,17.6,24.3,05.7,03.8,0651.1,31.0
2021-03-17T23:22:00Z,00040200,00000000,0000.58,0000.22,0000.17,0000.32,-000.03,-000.22,-000.14,-000.26,-000.37,17.6,24.3,05.5,03.6,0651.1,31.0
2021-03-17T23:23:00Z,00040200,00000000,0000.20,0000.08,0000.00,0000.13,0000.05,-000.05,0001.38,0001.05,0001.10,17.6,24.4,05.7,03.7,0651.1,31.0
2021-03-17T23:24:00Z,00040200,00000000,0000.20,0000.11,0000.00,0000.22,-000.02,0000.01,0000.83,0000.92,0000.79,17.6,24.4,06.2,04.1,0651.1,30.9
2021-03-17T23:25:00Z,00040200,00000000,0000.55,0000.27,0000.11,0000.43,0000.04,0000.19,0001.75,0001.86,0001.08,17.6,24.4,06.6,04.3,0651.1,31.0
2021-03-17T23:26:00Z,00040200,00000000,0000.58,0000.23,0000.27,-000.13,0000.15,0000.37,0000.00,0000.00,0000.16,17.6,24.4,06.7,04.4,0651.1,31.0
2021-03-17T23:27:00Z,00040200,00000000,0000.24,0000.21,0000.48,0000.29,0000.08,0000.24,0000.21,0000.54,0000.54,17.6,24.4,06.5,04.3,0651.1,31.0
2021-03-17T23:28:00Z,00040200,00000000,0000.78,0000.14,0000.24,0000.01,0000.14,-000.14,0000.54,-000.15,0000.21,17.6,24.4,06.3,04.2,0651.1,30.9
2021-03-17T23:29:00Z,00040200,00000000,0000.38,0000.32,-000.10,0000.08,-000.12,0000.04,-000.09,0000.04,-000.01,17.6,24.4,06.4,04.2,0651.1,30.9
2021-03-17T23:30:00Z,00040200,00000000,0000.61,0000.06,0000.33,-000.06,0000.21,0000.18,0000.25,0000.13,0000.05,17.6,24.4,06.2,04.1,0651.0,30.9
2021-03-17T23:31:00Z,00040200,00000000,-000.20,0000.17,0000.46,0000.29,0000.20,0000.22,0002.53,0003.01,0002.13,17.6,24.4,06.7,04.4,0651.1,30.9
2021-03-17T23:32:00Z,00040200,00000000,0000.31,0000.11,0000.36,0000.39,0000.30,0000.28,0000.97,0000.63,0000.55,17.6,24.4,07.0,04.6,0651.0,30.9
2021-03-17T23:33:00Z,00040200,00000000,0000.65,0000.21,0000.09,0000.29,0000.37,0000.01,-000.09,-000.26,-000.17,17.6,24.4,07.2,04.8,0651.0,30.9
2021-03-17T23:34:00Z,00040200,00000000,0000.55,0000.35,0000.49,-000.07,0000.31,0000.15,0001.81,0001.62,0001.63,17.6,24.4,07.3,04.8,0651.0,30.9
2021-03-17T23:35:00Z,00040200,00000000,0000.60,0000.14,0000.24,0000.06,0000.19,0000.09,0000.02,0000.12,0000.05,17.6,24.4,07.5,04.9,0651.0,30.9
2021-03-17T23:36:00Z,00040200,00000000,0001.12,0000.21,0000.49,0000.45,-000.08,0000.40,0000.30,0000.63,0000.20,17.6,24.4,07.5,05.0,0650.9,30.9
2021-03-17T23:37:00Z,00040200,00000000,0000.54,0000.13,0000.05,0000.22,0000.06,0000.35,0000.37,0000.31,0000.26,17.6,24.4,07.4,04.9,0650.9,30.9
2021-03-17T23:38:00Z,00040200,00000000,0000.80,0000.51,0000.11,-000.17,0000.09,0000.05,0001.21,0001.13,0000.87,17.6,24.4,07.6,05.0,0650.9,30.9
2021-03-17T23:39:00Z,00040200,00000000,0000.52,0000.27,0000.34,0000.27,-000.00,0000.24,0001.21,0001.06,0000.73,17.6,24.4,07.9,05.2,0650.8,30.9
2021-03-17T23:40:00Z,00040200,00000000,0000.43,0000.25,0000.36,0000.16,0000.18,0000.15,0000.23,0000.16,0000.57,17.6,24.4,08.1,05.4,0650.7,31.0
2021-03-17T23:41:00Z,00040200,00000000,0000.42,0000.51,0000.10,0000.09,0000.03,0000.12,0000.98,0000.98,0000.76,17.6,24.4,08.1,05.4,0650.7,31.0
2021-03-17T23:42:00Z,00040200,00000000,0000.79,0000.24,0000.62,0000.10,0000.28,0000.28,0000.32,0000.19,0000.04,17.6,24.4,08.2,05.4,0650.7,31.0
2021-03-17T23:43:00Z,00040200,00000000,0000.71,0000.16,0000.46,-000.39,0000.06,0000.23,0000.79,0000.61,0000.53,17.6,24.4,08.2,05.4,0650.7,31.0
2021-03-17T23:44:00Z,00040200,00000000,0000.64,0000.36,0000.26,-000.00,0000.21,0000.12,0000.79,0001.05,0001.01,17.6,24.4,08.3,05.5,0650.7,31.0
2021-03-17T23:45:00Z,00040200,00000000,0000.08,0000.61,0000.34,-000.26,0000.20,0000.27,0000.43,0000.29,0000.19,17.6,24.4,08.3,05.5,0650.6,31.0
2021-03-17T23:46:00Z,00040200,00000000,0000.12,0000.28,0000.64,0000.16,0000.01,0000.31,0001.08,0000.76,0000.45,17.6,24.4,08.4,05.6,0650.7,31.0
2021-03-17T23:47:00Z,00040200,00000000,0000.32,0000.02,0000.38,-000.03,0000.05,-000.01,0000.81,0001.13,0000.93,17.6,24.4,08.6,05.7,0650.6,31.0
2021-03-17T23:48:00Z,00040200,00000000,0000.68,0000.11,0000.27,0000.20,0000.06,0000.08,-000.79,-000.91,-000.66,17.6,24.4,08.7,05.8,0650.7,30.9
2021-03-17T23:49:00Z,00040200,00000000,0000.48,0000.31,0000.32,-000.13,-000.05,0000.08,0000.78,0000.66,0000.93,17.6,24.4,08.4,05.5,0650.6,30.9
2021-03-17T23:50:00Z,00040200,00000000,-000.16,0000.15,0000.16,0000.36,0000.11,0000.02,-000.63,-000.54,-000.67,17.6,24.4,08.3,05.5,0650.6,30.9
2021-03-17T23:51:00Z,00040200,00000000,0000.54,0000.06,0000.39,-000.12,0000.26,0000.15,0001.28,0001.19,0001.07,17.6,24.3,08.2,05.5,0650.6,30.9
2021-03-17T23:52:00Z,00040200,00000000,0000.84,0000.37,0000.31,0000.40,-000.01,0000.07,-000.02,0000.28,0000.17,17.7,24.4,08.5,05.7,0650.6,30.9
2021-03-17T23:53:00Z,00040200,00000000,0000.26,0000.33,0000.54,-000.32,-000.18,0000.37,0000.68,0000.24,0000.41,17.7,24.4,08.6,05.7,0650.7,30.9
2021-03-17T23:54:00Z,00040200,00000000,0000.53,-000.24,0000.18,-000.03,0000.07,0000.09,0000.33,0000.58,0000.12,17.7,24.4,08.7,05.8,0650.5,31.0
2021-03-17T23:55:00Z,00040200,00000000,0000.72,-000.12,0000.41,0000.19,0000.08,0000.35,0000.04,-000.13,0000.64,17.7,24.3,08.5,05.6,0650.5,30.9
2021-03-17T23:56:00Z,00040200,00000000,0000.05,0000.25,0000.10,0000.13,0000.10,0000.26,0001.06,0001.10,0000.77,17.7,24.3,08.5,05.6,0650.5,30.9
2021-03-17T23:57:00Z,00040200,40000000,,,,,,,-000.52,-000.33,-000.57,17.7,24.4,08.3,05.5,0650.3,30.9
2021-03-17T23:58:00Z,00040200,60000000,,,,,,,0000.05,-000.04,-000.08,17.4,24.5,08.5,05.5,0649.4,30.9
2021-03-17T23:59:00Z,00040200,20000000,,,,,,,-000.78,-000.76,-000.28,17.4,24.6,08.6,05.5,0649.4,31.0
